Location: Peebles
(55.6412°N, 3.1714°W)
Time: 15:46:38
(UTC+01:00)

COSMOS 2487 - Pass Details

Date: 26 September 2021
Orbit: 426 x 428 km, 74.7° (Epoch: 17 October)

Event Time Altitude Azimuth Distance (km) Brightness Sun altitude
Rises 19:55:14 0° 341° (NNW) 2,407 6.5 -8.5°
Reaches altitude 10° 19:57:53 10° 4° (N) 1,535 5.2 -8.9°
Maximum altitude 20:00:05 16° 45° (NE) 1,204 4.2 -9.2°
Enters shadow 20:01:49 12° 79° (E) 1,409 4.3 -9.4°
